Location: Newark
(57.4833°N, 18.5000°E)
Time: 02:05:03
(UTC+00:00)

ISS - Visible Passes

Search period start: 26 February 2020 00:00
Search period end: 07 March 2020 00:00
Orbit: 415 x 422 km, 51.6° (Epoch: 26 February)

Date Brightness Start Highest point End Pass type
(mag) Time Alt. Az. Time Alt. Az. Time Alt. Az.
26 Feb -1.1 04:13:01 10° S 04:15:02 15° SSE 04:17:04 10° ESE visible
27 Feb -1.0 03:26:23 10° SSE 03:27:38 12° SSE 03:28:52 10° SE visible
27 Feb -1.9 05:00:46 10° SW 05:03:37 26° SSE 05:06:30 10° ESE visible
28 Feb -1.8 04:13:36 11° SSW 04:16:07 22° SSE 04:18:50 10° ESE visible
29 Feb -1.7 03:27:51 17° S 03:28:38 19° SSE 03:31:05 10° ESE visible
29 Feb -2.3 05:01:48 10° WSW 05:04:49 30° S 05:07:50 10° ESE visible
01 Mar -1.1 02:42:02 14° SE 02:42:02 14° SE 02:43:10 10° ESE visible
01 Mar -2.3 04:14:59 14° SW 04:17:15 28° S 04:20:13 10° ESE visible
02 Mar -2.3 03:29:07 24° S 03:29:42 25° SSE 03:32:34 10° ESE visible
03 Mar -1.5 02:43:13 19° SE 02:43:13 19° SE 02:44:51 10° ESE visible
03 Mar -2.5 04:16:10 15° WSW 04:18:24 30° S 04:21:25 10° ESE visible
04 Mar -2.6 03:30:15 28° SSW 03:30:48 30° S 03:33:49 10° ESE visible
05 Mar -1.8 02:44:19 23° SE 02:44:19 23° SE 02:46:10 10° ESE visible
05 Mar -2.4 04:17:16 14° WSW 04:19:28 27° S 04:22:23 10° SE visible
06 Mar -0.6 01:58:24 10° ESE 01:58:24 10° ESE 01:58:28 10° ESE visible
06 Mar -2.6 03:31:20 28° SSW 03:31:52 29° S 03:34:52 10° SE visible
